Location: Les Chemineaux
(47.3024°N, 1.5104°E)
Time: 18:40:03
(UTC+00:00)

Cosmos 773 Rocket - Pass Details

Date: 19 May 2025
Orbit: 742 x 772 km, 74.1° (Epoch: 22 June)

Event Time Altitude Azimuth Distance (km) Brightness Sun altitude
Exits shadow 21:51:34 19° 198° (SSW) 1,723 5.4 -17.6°
Maximum altitude 21:55:17 85° 111° (ESE) 754 3.9 -17.9°
Drops below altitude 10° 22:00:25 10° 23° (NNE) 2,265 7.0 -18.3°
Sets 22:02:47 0° 23° (NNE) 3,192 7.8 -18.5°
